Location: Newark
(42.7133°N, 87.7910°W)
Time: 13:13:26
(UTC+00:00)

Explorer 7 - All Passes

Search period start: 23 September 2019 00:00
Search period end: 03 October 2019 00:00
Orbit: 485 x 680 km, 50.3° (Epoch: 23 September)

Date Brightness Start Highest point End Pass type
(mag) Time Alt. Az. Time Alt. Az. Time Alt. Az.
23 Sep - 01:51:01 10° SSE 01:53:18 14° SE 01:55:39 10° E night (unlit)
23 Sep - 03:28:51 10° SW 03:33:11 76° SE 03:37:49 10° ENE night (unlit)
23 Sep - 05:09:51 10° W 05:14:07 39° NNW 05:18:35 10° NE night (unlit)
23 Sep - 06:51:16 10° WNW 06:55:34 34° N 07:00:00 10° ENE night (unlit)
23 Sep - 08:31:58 10° WNW 08:36:47 67° NNE 08:41:41 10° ESE visible
23 Sep - 10:12:55 10° WNW 10:17:14 32° SW 10:21:33 10° SSE visible
24 Sep - 01:54:41 10° S 01:58:02 23° SE 02:01:33 10° E visible
24 Sep - 03:33:52 10° WSW 03:38:13 75° NNW 03:42:52 10° ENE night (unlit)
24 Sep - 05:15:11 10° WNW 05:19:21 34° N 05:23:43 10° ENE night (unlit)
24 Sep - 06:56:25 10° NW 07:00:48 37° NNE 07:05:21 10° E night (unlit)
24 Sep - 08:37:00 10° WNW 08:41:51 89° SSW 08:46:47 10° ESE visible
24 Sep - 10:18:26 10° W 10:22:03 21° SW 10:25:40 10° S visible
25 Sep - 01:58:59 10° SSW 02:02:51 36° SE 02:06:58 10° ENE visible
25 Sep - 03:39:02 10° WSW 03:43:19 55° NNW 03:47:54 10° NE night (unlit)
25 Sep - 05:20:30 10° WNW 05:24:37 32° N 05:28:55 10° ENE night (unlit)
25 Sep - 07:01:30 10° NW 07:06:01 44° NNE 07:10:42 10° E night (unlit)
25 Sep - 08:42:04 10° WNW 08:46:51 63° SW 08:51:42 10° SE visible
25 Sep - 10:24:36 10° W 10:26:47 13° SW 10:28:59 10° SSW visible
26 Sep - 02:03:38 10° SW 02:07:45 57° SE 02:12:10 10° ENE visible
26 Sep - 03:44:18 10° W 03:48:29 43° NNW 03:52:56 10° NE night (unlit)
26 Sep - 05:25:45 10° WNW 05:29:53 32° N 05:34:11 10° ENE night (unlit)
26 Sep - 07:06:32 10° NW 07:11:11 55° NNE 07:15:59 10° ESE night (unlit)
26 Sep - 08:47:14 10° WNW 08:51:47 42° SW 08:56:23 10° SSE visible
27 Sep - 00:30:14 10° SSE 00:32:46 16° SE 00:35:25 10° E visible
27 Sep - 02:08:31 10° SW 02:12:44 86° SSE 02:17:15 10° ENE visible
27 Sep - 03:49:37 10° W 03:53:42 36° NNW 03:58:02 10° NE night (unlit)
27 Sep - 05:30:56 10° WNW 05:35:08 34° N 05:39:31 10° ENE night (unlit)
27 Sep - 07:11:33 10° WNW 07:16:17 74° NNE 07:21:11 10° ESE night (unlit)
27 Sep - 08:52:34 10° WNW 08:56:39 27° SW 09:00:46 10° SSE night (unlit)
28 Sep - 00:34:08 10° S 00:37:32 26° SE 00:41:07 10° ENE visible
28 Sep - 02:13:35 10° WSW 02:17:47 67° NNW 02:22:17 10° ENE visible
28 Sep - 03:54:57 10° WNW 03:58:57 32° N 04:03:10 10° ENE night (unlit)
28 Sep - 05:36:03 10° NW 05:40:22 38° NNE 05:44:52 10° E night (unlit)
28 Sep - 07:16:35 10° WNW 07:21:19 80° SSW 07:26:13 10° SE night (unlit)
28 Sep - 08:58:13 10° W 09:01:26 18° SW 09:04:41 10° S night (unlit)
29 Sep - 00:38:32 10° SSW 00:42:22 41° SE 00:46:28 10° ENE visible
29 Sep - 02:18:47 10° W 02:22:54 49° NNW 02:27:18 10° NE visible
29 Sep - 04:00:14 10° WNW 04:04:12 31° N 04:08:23 10° ENE night (unlit)
29 Sep - 05:41:06 10° NW 05:45:33 46° NNE 05:50:12 10° E night (unlit)
29 Sep - 07:21:40 10° WNW 07:26:17 55° SW 07:31:04 10° SE night (unlit)
29 Sep - 09:05:04 10° WSW 09:06:10 11° SW 09:07:17 10° SW night (unlit)
29 Sep - 23:06:43 10° SE 23:07:33 11° SE 23:08:23 10° ESE daylight
30 Sep - 00:43:15 10° SW 00:47:17 65° SE 00:51:37 10° ENE visible
30 Sep - 02:24:04 10° W 02:28:05 39° NNW 02:32:21 10° NE visible
30 Sep - 04:05:28 10° WNW 04:09:28 31° N 04:13:40 10° ENE night (unlit)
30 Sep - 05:46:07 10° NW 05:50:41 60° NNE 05:55:28 10° ESE night (unlit)
30 Sep - 07:26:52 10° WNW 07:31:12 36° SW 07:35:39 10° SSE night (unlit)
30 Sep - 23:09:31 10° S 23:12:16 18° SE 23:15:07 10° E daylight
01 Oct - 00:48:12 10° WSW 00:52:17 84° NNW 00:56:41 10° ENE visible
01 Oct - 02:29:24 10° WNW 02:33:19 33° N 02:37:27 10° NE visible
01 Oct - 04:10:37 10° NW 04:14:43 34° N 04:19:01 10° ENE night (unlit)
01 Oct - 05:51:08 10° WNW 05:55:46 81° NNE 06:00:36 10° ESE night (unlit)
01 Oct - 07:32:17 10° W 07:36:02 24° SW 07:39:53 10° S night (unlit)
01 Oct - 23:13:36 10° SSW 23:17:03 29° SE 23:20:42 10° ENE daylight
02 Oct - 00:53:19 10° WSW 00:57:22 59° NNW 01:01:42 10° NE visible
02 Oct - 02:34:43 10° WNW 02:38:33 31° N 02:42:36 10° ENE visible
02 Oct - 04:15:42 10° NW 04:19:55 40° NNE 04:24:22 10° E night (unlit)
02 Oct - 05:56:10 10° WNW 06:00:47 71° SW 06:05:35 10° SE night (unlit)
02 Oct - 07:38:09 10° W 07:40:50 15° SW 07:43:32 10° SSW night (unlit)
02 Oct - 23:18:07 10° SW 23:21:55 46° SE 23:25:58 10° ENE daylight
